X Fechar
foto

X Fechar
foto
Clique e saiba mais
Clique e saiba mais
Clique e saiba mais
Clique e saiba mais
Clique e saiba mais
Clique e saiba mais

Edgers Racing

KTM Sacramento

Toro Sports

SP Race Park

JPS Racing

MotoX Pneus

Arenafama

Clique e saiba mais

> Competição > Brasileiro de Motocross

2ª etapa - Corridas - Siqueira Campos - PR
Publicado em: 30/03/2008

Etapa marcou inauguração do Centro de Treinamento Pro Tork
Texto e fotos: Maurício Arruda


Centro de Treinamento Pro Tork

O Centro de Treinamento Pro Tork, em Siqueira Campos (PR), foi palco da 2ª etapa do Campeonato Brasileiro de Motocross neste domingo. Um grande público lotou as dependências do Motódromo paranaense para acompanhar os melhores pilotos do país na disputa de sete categorias.

Veja também:
- Matéria com mais detalhes do evento
-
Galeria de imagens com 579 fotos das corridas!
- Galeria de imagens com 417 fotos dos treinos livres!
- Galeria de Imagens com 501 fotos dos treinos cronometrados!
- Vídeos das corridas na MotoX TV


CRF 230


Carlim Maia

A bateria da CRF 230 abriu a programação e quem garantiu o primeiro lugar foi Carlim Maia. Nem a falta do freio dianteiro - sua moto perdeu a pinça durante a prova - impediu a vitória do goiano. Nivaldo Viana repetiu o desempenho da etapa de abertura do campeonato, ficou com a segunda posição, e agora lidera a classificação geral.

Pos CRF 230 V Tempo Dif M Volta
1 88 Carlos Pereira Maia Filho 10 20:54.700 - 2:00.389
2 53 Nivaldo Jose Viana 10 20:56.502 1.802 1:58.805
3 113 Marcos Roberto Roza De Moraes 10 20:56.628 1.928 1:57.626
4 5 Lucas Pagnoncelli De Araujo 10 21:10.616 15.916 2:00.082
5 404 Marcio Junior 10 21:25.600 30.900 2:02.110
6 17 Danilo Milton Fumes 10 21:30.470 35.770 2:01.588
7 15 Charles Baron 10 21:42.321 47.621 2:03.605
8 360 Person Pauletto 10 21:43.205 48.505 2:02.781
9 93 Marcelo Pires 10 21:44.078 49.378 2:03.759
10 422 Thiago Quintela Melo 10 22:05.450 1:10.750 2:05.885
11 12 Rafael Jose Fernandes De Oliveira 10 22:11.646 1:16.946 2:05.436
12 77 Andreo Luiz Bloes 10 22:16.250 1:21.550 2:07.544
13 22 Fabio De Lucena Brito 10 22:21.910 1:27.210 2:06.406
14 23 Cesar Vinicius Costa Boaventur 10 22:24.086 1:29.386 2:06.358
15 313 Darlam Marcondes Da Silva 10 22:29.910 1:35.210 2:06.095

MX3


Chumbinho Becker e Nico Rocha

Na MX3 os pilotos patrocinados pela Pro Tork dominaram a bateria. Milton Chumbinho Becker não fez boa largada, mas conseguiu se recuperar e segue invicto na temporada. Seu companheiro de equipe, Nico Rocha, foi quem deu mais trabalho ao atual campeão que precisou manter um ritmo forte até o final da prova. O irmão de Chumbinho, Elton Becker, fez ótima prova e isolou-se no terceiro lugar. Jorge Negretti fechou a bateria na quarta posição, lado a lado com Willian Guimarães, quinto colocado.

Pos MX3 V Tempo Dif M Volta
1 1 Milton Becker A 16 29:29.782 - 1:46.852
2 22 Nicomedes Soares Da Rocha Filho B 16 29:32.028 2.246 1:46.959
3 215 Elton Becker B 16 29:58.450 28.668 1:47.720
4 909 Jorge Negretti A 16 30:08.924 39.142 1:48.021
5 60 Willian Aparecido Alves Guimaraes B 16 30:08.952 39.170 1:48.677
6 202 Julio Cezar Bonifacio Xavier A 16 31:19.621 1:49.839 1:53.112
7 127 Marcelo Alan Agostini A 16 31:20.958 1:51.176 1:53.247
8 40 Adilson Luiz De Araujo B 16 31:27.065 1:57.283 1:53.720
9 45 Marco Muller B 15 29:34.285 1 Lap 1:54.597
10 56 Mariana Balbi A 15 29:47.166 12.881 1:51.631
11 54 Ricardo Raspa B 15 29:49.482 15.197 1:54.332
12 66 Jose Israel Batista Feitosa B 15 29:55.751 21.466 1:54.040
13 61 Nasri Weinhardt Sarkis A 15 29:56.613 22.328 1:54.052
14 77 Fabio Aleixo Dos Santos B 15 30:03.068 28.783 1:55.785
15 39 Leo Lopes A 15 30:09.144 34.859 1:55.852

MX2


Marcello Ratinho

A categoria MX2 teve muita emoção do início até o final. Rodrigo Selhorst foi quem saiu na frente, mas após a terceira volta a liderança era de Marcello Ratinho Lima. Os dois tiveram a companhia de Duda Parise numa prova de ritmo intenso. Ratinho manteve a ponta até a bandeirada, chegando com menos de dois segundos de vantagem sobre Selhorst. O piloto da Honda terminou a corrida com dores devido a uma torção no pé esquerdo.

Parise voltou ao pódio com um excelente desempenho. O gaúcho manteve o ritmo dos ponteiros e foi premiado com uma merecida terceira posição. O quarto lugar foi de Swian Zanoni que teve muito trabalho depois de largar fora dos dez primeiros. Já Lucas Moraes, que chegou a disputar posição com Parise, sentiu o desgaste de competir no calor e encerrou a bateria na quinta posição.

Pos MX2 V Tempo Dif M Volta
1 7 Marcello Ferreira De Lima A 19 34:02.157 - 1:44.226
2 8 Rodrigo Clemente Selhorst A 19 34:04.148 1.991 1:44.836
3 18 Douglas Scartazzini Parise A 19 34:08.142 5.985 1:44.581
4 9 Swian Zanoni Coelho Gomes A 19 34:36.213 34.056 1:45.149
5 23 Lucas Lemgruber De Moraes B 19 34:43.991 41.834 1:45.425
6 24 Cesar Augusto Popinhak B 19 34:55.326 53.169 1:47.465
7 26 Massoud Nassar Neto B 19 34:59.913 57.756 1:46.937
8 13 Eduardo Ferreira Lima A 19 35:07.955 1:05.798 1:47.594
9 17 Davis Guimarães B 19 35:08.327 1:06.170 1:47.938
10 31 Rafael Zenni A 19 35:22.134 1:19.977 1:47.167
11 51 Joao Paulo Feltz A 19 35:50.039 1:47.882 1:48.819
12 317 Carlos Eduardo Mendes Franco B 19 35:56.311 1:54.154 1:48.163
13 10 Jean Carlo Ramos B 18 34:05.764 1 Lap 1:48.500
14 52 Kristofer Name Florenzano A 18 34:07.005 1.241 1:49.477
15 132 Tiago Hort A 18 34:18.216 12.452 1:49.409

65cc


Kaio Miranda

Kaio Miranda conquistou outra vitória na 65cc, mas antes de confirmar o resultado teve trabalho com Rodrigo Riffel lhe perseguindo por boa parte da bateria. Ao final tinha grande vantagem depois que seu principal adversário cometeu um erro e perdeu contato.

Pos 65cc V Tempo Dif M Volta
1 2 Kaio Cesar De Miranda 9 19:29.556 - 2:04.562
2 3 Rodrigo Jose Riffel 9 20:07.473 37.917 2:04.249
3 11 Hallex Dalfovo 9 20:08.229 38.673 2:06.943
4 8 Joao Pedro Pinho Ribeiro 9 21:00.952 1:31.396 2:11.562
5 19 Gustavo Alves Santos Borges 9 21:12.058 1:42.502 2:14.847
6 46 Francisco Urrutia Bratschi 9 21:17.066 1:47.510 2:12.585
7 55 Mauricio Treichel 9 21:19.825 1:50.269 2:10.679
8 7 Thiago Bortoloti Formehl 9 21:20.225 1:50.669 2:07.510
9 536 Gustavo Pessoa De Souza 9 21:34.387 2:04.831 2:10.628
10 81 Kioman De Jesus Navarro 9 21:35.099 2:05.543 2:16.931
11 122 Filipe Sorrentino Ribeiro 9 21:42.393 2:12.837 2:15.707
12 38 Northon Carlos Carvalho 9 21:46.497 2:16.941 2:18.397
13 51 Enzo Lazaro Pedo Lopes 9 21:50.874 2:21.318 2:18.867
14 69 Vinicius Felipe Leal De Oliveira 8 19:55.529 1 Lap 2:21.117
15 66 Cristian Scherer 8 19:56.600 1.071 2:19.306

MXJr


Anderson Cidade

Anderson Cidade completou um final de semana perfeito com a vitória na categoria MXJr. Depois do melhor tempo e do ponto extra nos treinos, o piloto de Santa Catarina andou forte na prova e reagiu quando perdeu momentaneamente a liderança para Thales Vilardi. De volta ao primeiro lugar, Cidade determinou o ritmo e confirmou a vitória na corrida. Thales acabou superado também por Gustavo Amaral e finalizou na terceira posição.

Pos MXJr V Tempo Dif M Volta
1 20 Anderson Hauptli Cidade 13 24:02.817 - 1:46.708
2 21 Gustavo Pereira Do Amaral 13 24:07.752 4.935 1:47.344
3 14 Thales Vilardi Felix Da Silva 13 24:07.995 5.178 1:47.023
4 32 Kaian Teixeira Evangelista 13 24:27.540 24.723 1:48.564
5 700 Hector Freitas Assunçao 13 24:33.373 30.556 1:48.108
6 34 Gabriel Bitencourt Gentil 13 24:38.636 35.819 1:49.988
7 544 Marçal Muller 13 24:44.698 41.881 1:50.665
8 501 Gustavo Vieira Bonaventura Takahashi 13 24:47.420 44.603 1:48.320
9 67 Gabriel Ferreira Montenegro 13 25:08.984 1:06.167 1:50.205
10 43 Mairon Mergener 13 25:21.858 1:19.041 1:50.947
11 126 Rodrigo De Castro Rodrigues 13 25:22.360 1:19.543 1:49.254
12 79 Higor Passos 13 25:42.100 1:39.283 1:54.174
13 102 Kaique Arranz Polimeno 13 25:42.986 1:40.169 1:53.635
14 192 Henrique Winkler 13 26:01.400 1:58.583 1:54.438
15 259 Joao Vinicius Gabriel Costa De Oliveira 12 24:05.903 1 Lap 1:55.563

85cc


Rodrigo Lama

A categoria 85cc teve uma apresentação perfeita de Rodrigo Lama. O sergipano liderou de ponta a ponta, deixando os demais na disputa pelo segundo lugar. Endrews Armstrong também brilhou e, vindo de trás, superou vários concorrentes para finalizar na segunda posição. Também subiram ao pódio, Cézar Zamboni, Eduardo Rudnick e Gabriel Zenni.

Pos 85cc V Tempo Dif M Volta
1 3 Rodrigo De Andrade Santos 12 23:59.410 - 1:54.761
2 112 Endrews Armstrong Nhemihes 12 24:03.404 3.994 1:55.680
3 7 Cezar Augusto Zamboni 12 24:03.602 4.192 1:52.851
4 94 Eduardo Leopoldo Rudnick 12 24:16.424 17.014 1:56.474
5 6 Gabriel Zenni 12 24:19.211 19.801 1:56.918
6 5 Everaldo Rodrigues Lima Filho 12 24:19.257 19.847 1:56.374
7 40 Caio Cardoso Ferreira Celino 12 24:49.265 49.855 1:58.432
8 53 Leonardo Lizott 12 25:18.032 1:18.622 1:58.005
9 67 Raul Faustino 12 25:39.212 1:39.802 2:00.706
10 43 Marcos Paulo Holtman 12 25:41.529 1:42.119 2:02.013
11 11 Stefany Goncalves Serrao 12 25:43.218 1:43.808 2:00.009
12 62 Manoel Humberto De Oliveira Kuhn 12 25:49.934 1:50.524 2:02.984
13 21 Francisco Martins De Araujo Neto 12 25:51.691 1:52.281 2:02.184
14 95 Anderson Pereira Do Amaral 12 25:54.088 1:54.678 2:02.061
15 12 Gabriel Francisco Pereira Marques 12 25:57.272 1:57.862 2:04.226

MX1


Leandro Silva

A categoria MX1, assim como na corrida de abertura do campeonato, voltou a apresentar uma prova excepcional. A ausência na bateria foi do norte-americano Scott Simon, que machucou o pé em uma violenta queda durante os treinos cronometrados de sábado. Dada a largada quem assumiu a liderança foi Leandro Silva seguido por Wellington Garcia. Na quarta posição João Marronzinho recuperou terreno com rapidez e entrou na disputa pela liderança.

Na terceira volta, para vibração do público, Marronzinho ultrapassou Leandro Silva assumindo a liderança. Wellington Garcia, em terceiro, permaneceu perseguindo de perto os dois primeiros. A disputa continou por várias voltas com Leandro retomando o primeiro lugar após a metade da bateria.

Quando a prova já se encaminhava para suas duas últimas voltas, Marronzinho deixou o motor de sua 450cc apagar. Com ele fora da disputa a briga ficou restrita a Leandro e Wellington que deram mais duas voltas de arrepiar na pista parananaense. Leandro segurou a primeira posição vencendo a prova com meio segundo de vantagem sobre seu companheiro de equipe. Marronzinho conseguiu religar sua moto e, mesmo perdendo muito tempo, ainda garantiu o terceiro lugar. Douglas Parise e Thales Vilardi voltaram ao pódio de Siqueira Campos com a quarta e quinta posições.

Confira durante a semana mais informações, fotos e vídeos de todas as categorias.

Pos MX1 V Tempo Dif M Volta
1 4 Leandro Nunes Da Silva 19 33:25.889 - 1:42.210
2 1 Welington Garcia Matos 19 33:26.437 0.548 1:41.841
3 3 Joao Paulino Da Silva Junior 19 34:16.015 50.126 1:42.814
4 18 Douglas Scartazzini Parise 19 34:17.371 51.482 1:45.400
5 14 Thales Vilardi Felix Da Silva 19 34:18.156 52.267 1:44.928
6 6 Cristopher Castro 19 34:19.432 53.543 1:45.720
7 12 Kurtt Airton Rocha 19 34:44.943 1:19.054 1:46.567
8 5 Roosevelt De Freitas Assuncao Junior 19 34:49.018 1:23.129 1:45.046
9 49 Cesar Adrian Cantero Antes 19 34:50.121 1:24.232 1:45.975
10 42 Marcos Campos Cordeiro 18 33:37.980 1 Lap 1:47.595
11 444 Jethro Feula 18 34:03.499 25.519 1:49.343
12 29 Djohny Luiz De Aquino 18 34:08.014 30.034 1:48.972
13 91 Uyran Carlos Faria Da Silva 18 34:50.748 1:12.768 1:51.894
14 83 Anderson Chupel 17 33:41.462 2 Laps 1:52.402
15 517 Reinaldo Silveira Moreira 17 33:45.907 4.445 1:53.681



Curso MotoX
JPS Racing

© 2000 - 2018 MotoX MX1 Internet